Sussex, NJ

12:16 PM EDT on July 23, 2016 (GMT -0400)
Sussex

Weather History for KFWN - April, 2014

Change the Weather History Date:

Sunday, April 27, 2014

  Actual Average Record
Temperature  
Mean Temperature 52 °F -  
Max Temperature 57 °F 63 °F 91 °F (1990)
Min Temperature 46 °F 38 °F 26 °F (2002)
Degree Days  
Heating Degree Days 14    
Growing Degree Days 2 (Base 50)    
Moisture  
Dew Point 33 °F    
Average Humidity 51    
Maximum Humidity 63    
Minimum Humidity 40    
Precipitation  
Precipitation 0.00 in - - ()
Sea Level Pressure  
Sea Level Pressure 30.02 in    
Wind  
Wind Speed 7 mph (NNW)    
Max Wind Speed 15 mph    
Max Gust Speed 24 mph    
Visibility 10 miles    
Events      
Averages and records for this station are not official NWS values.
T = Trace of Precipitation, MM = Missing Value Source: NWS Daily Summary

Daily Weather History Graph

Daily Weather History Graph

Search for Another Location

Airport or City:

Trip Planner

Search our weather history database for the weather conditions in past years. The results will help you decide how hot, cold, wet, or windy it might be!

Date:

Astronomy

Apr. 27, 2014 Rise Set
Actual Time 6:01 AM EDT 7:51 PM EDT
Civil Twilight 5:31 AM EDT 8:21 PM EDT
Nautical Twilight 4:56 AM EDT 8:57 PM EDT
Astronomical Twilight 4:17 AM EDT 9:36 PM EDT
Moon 5:01 AM EDT (4/27) 6:21 PM EDT (4/27)
Length of Visible Light 14h 49m
Length of Day
13h 49m
Waning Crescent, 3% of the Moon is Illuminated
Apr 27
Waning Crescent
Apr 29
New
May 6
First Quarter
May 14
Full
May 21
Last Quarter

Hourly Weather History & Observations

Time (EDT) Temp. Windchill Dew Point Humidity Pressure Visibility Wind Dir Wind Speed Gust Speed Precip Events Conditions
12:53 AM 48.0 °F - 34.0 °F 58% 29.92 in 10.0 mi Variable 5.8 mph - N/A   Partly Cloudy
1:53 AM 48.9 °F - 34.0 °F 56% 29.91 in 10.0 mi North - - N/A   Mostly Cloudy
2:53 AM 48.0 °F - 34.0 °F 58% 29.91 in 10.0 mi NW 6.9 mph - N/A   Overcast
3:53 AM 48.0 °F - 34.0 °F 58% 29.91 in 10.0 mi Variable 5.8 mph - N/A   Mostly Cloudy
4:53 AM 46.9 °F - 34.0 °F 61% 29.92 in 10.0 mi NNW 5.8 mph - N/A   Partly Cloudy
5:53 AM 46.0 °F 44.8 °F 34.0 °F 63% 29.94 in 10.0 mi WNW 3.5 mph - N/A   Partly Cloudy
6:53 AM 46.9 °F - 33.1 °F 59% 29.96 in 10.0 mi NNW 6.9 mph - N/A   Clear
8:53 AM 48.9 °F - 33.1 °F 54% 29.99 in 10.0 mi North 11.5 mph 21.9 mph N/A   Clear
9:53 AM 51.1 °F - 34.0 °F 52% 30.01 in 10.0 mi NNE 9.2 mph 21.9 mph N/A   Mostly Cloudy
10:53 AM 54.0 °F - 34.0 °F 47% 30.02 in 10.0 mi NNW 8.1 mph 24.2 mph N/A   Mostly Cloudy
12:53 PM 53.1 °F - 30.9 °F 43% 30.02 in 10.0 mi North 10.4 mph 20.7 mph N/A   Overcast
1:53 PM 55.0 °F - 32.0 °F 42% 30.03 in 10.0 mi North 10.4 mph 19.6 mph N/A   Overcast
2:53 PM 54.0 °F - 30.9 °F 41% 30.04 in 10.0 mi NNW 8.1 mph 20.7 mph N/A   Mostly Cloudy
4:53 PM 55.9 °F - 32.0 °F 40% 30.02 in 10.0 mi North 15.0 mph 21.9 mph N/A   Mostly Cloudy
5:53 PM 57.0 °F - 33.1 °F 40% 30.04 in 10.0 mi North 11.5 mph 19.6 mph N/A   Overcast
6:53 PM 55.0 °F - 32.0 °F 42% 30.07 in 10.0 mi North 9.2 mph - N/A   Scattered Clouds
7:53 PM 53.1 °F - 32.0 °F 45% 30.09 in 10.0 mi Variable 4.6 mph - N/A   Mostly Cloudy
8:53 PM 51.1 °F - 32.0 °F 48% 30.11 in 10.0 mi NW 4.6 mph - N/A   Mostly Cloudy
9:53 PM 51.1 °F - 32.0 °F 48% 30.14 in 10.0 mi North 6.9 mph - N/A   Overcast
10:53 PM 50.0 °F - 33.1 °F 52% 30.14 in 10.0 mi NNW 4.6 mph - N/A   Clear
11:53 PM 48.9 °F - 33.1 °F 54% 30.14 in 10.0 mi North 6.9 mph - N/A   Clear